Weather History for Craig, CO

Change the Weather History Date:

Wednesday, November 21, 2012

  Actual Average Record
Temperature  
Mean Temperature 40 °F 28 °F  
Max Temperature 60 °F 40 °F 60 °F (2012)
Min Temperature 20 °F 15 °F -2 °F (2000)
Degree Days  
Heating Degree Days 25 37  
Month to date heating degree days 576 682  
Since 1 July heating degree days 1448 1727  
Cooling Degree Days 0 0  
Month to date cooling degree days 0 0  
Year to date cooling degree days 344 142  
Moisture  
Dew Point 19 °F    
Average Humidity 53    
Maximum Humidity 88    
Minimum Humidity 17    
Precipitation  
Precipitation 0.00 in 0.04 in 0.18 in (2003)
Month to date precipitation 0.43 1.07  
Year to date precipitation 6.13 14.68  
Sea Level Pressure  
Sea Level Pressure 30.12 in    
Wind  
Wind Speed 5 mph (SW)    
Max Wind Speed 23 mph    
Max Gust Speed 29 mph    
Visibility 10 miles    
Events      
T = Trace of Precipitation, MM = Missing Value Source: NWS Daily Summary

Daily Weather History Graph

Daily Weather History Graph

Search for Another Location

Airport:

Trip Planner

Search our weather history database for the weather conditions in past years. The results will help you decide how hot, cold, wet, or windy it might be!

Date:

Astronomy

Nov. 21, 2012 Rise Set
Actual Time 7:03 AM MST 4:47 PM MST
Civil Twilight 6:34 AM MST 5:17 PM MST
Nautical Twilight 6:00 AM MST 5:51 PM MST
Astronomical Twilight 5:28 AM MST 6:23 PM MST
Moon 1:07 PM MST (11/21) 12:24 AM MST (11/21)
Length of Visible Light 10h 43m
Length of Day
9h 44m
Waxing Gibbous, 62% of the Moon is Illuminated
Nov 21
Waxing Gibbous
Nov 28
Full
Dec 6
Last Quarter
Dec 13
New
Dec 19
First Quarter

Hourly Weather History & Observations

Time (MST) Temp. Windchill Dew Point Humidity Pressure Visibility Wind Dir Wind Speed Gust Speed Precip Events Conditions
12:53 AM 25.0 °F - 19.9 °F 81% 30.21 in 10.0 mi Calm Calm - N/A   Clear
1:53 AM 23.0 °F - 19.0 °F 85% 30.21 in 10.0 mi Calm Calm - N/A   Clear
2:53 AM 21.9 °F 17.2 °F 18.0 °F 85% 30.19 in 10.0 mi West 3.5 mph - N/A   Clear
3:53 AM 23.0 °F - 19.0 °F 85% 30.18 in 10.0 mi Calm Calm - N/A   Clear
4:53 AM 21.9 °F - 18.0 °F 85% 30.23 in 10.0 mi Calm Calm - N/A   Clear
5:53 AM 21.9 °F 17.2 °F 18.0 °F 85% 30.24 in 10.0 mi South 3.5 mph - N/A   Clear
6:53 AM 21.0 °F - 17.1 °F 85% 30.27 in 10.0 mi Calm Calm - N/A   Clear
7:53 AM 26.1 °F - 19.9 °F 78% 30.25 in 10.0 mi Calm Calm - N/A   Clear
8:53 AM 33.8 °F - 24.8 °F 70% 30.16 in 10.0 mi Calm Calm - N/A   Clear
9:53 AM 43.0 °F 41.3 °F 27.0 °F 53% 30.15 in 10.0 mi Variable 3.5 mph - N/A   Clear
10:53 AM 50.0 °F - 21.9 °F 33% 30.11 in 10.0 mi ENE 4.6 mph - N/A   Clear
11:53 AM 60.1 °F - 16.0 °F 18% 30.05 in 10.0 mi SW 12.7 mph - N/A   Clear
12:53 PM 57.0 °F - 17.1 °F 21% 30.04 in 10.0 mi West 12.7 mph - N/A   Clear
1:53 PM 60.1 °F - 15.1 °F 17% 30.01 in 10.0 mi WSW 19.6 mph 25.3 mph N/A   Clear
2:53 PM 59.0 °F - 16.0 °F 19% 30.01 in 10.0 mi SW 16.1 mph 27.6 mph N/A   Clear
3:53 PM 55.9 °F - 15.1 °F 20% 30.01 in 10.0 mi WSW 10.4 mph 19.6 mph N/A   Clear
4:53 PM 48.0 °F - 17.1 °F 29% 30.08 in 10.0 mi SW 5.8 mph - N/A   Clear
5:53 PM 46.0 °F 44.8 °F 17.1 °F 31% 30.09 in 10.0 mi West 3.5 mph - N/A   Clear
6:53 PM 44.1 °F 40.1 °F 18.0 °F 35% 30.09 in 10.0 mi WSW 6.9 mph - N/A   Clear
7:53 PM 37.0 °F - 21.0 °F 52% 30.10 in 10.0 mi Calm Calm - N/A   Clear
8:53 PM 37.0 °F 34.5 °F 19.9 °F 50% 30.09 in 10.0 mi ESE 3.5 mph - N/A   Clear
9:53 PM 33.1 °F - 19.9 °F 59% 30.07 in 10.0 mi Calm Calm - N/A   Clear
10:53 PM 32.0 °F 28.7 °F 21.0 °F 64% 30.05 in 10.0 mi ESE 3.5 mph - N/A   Clear
11:53 PM 28.0 °F - 19.9 °F 72% 30.04 in 10.0 mi Calm Calm - N/A   Clear